Regional Weather Roundup
Issued by NWS

Home | Current Version | Previous Version | Text Only | Print | Product List | Glossary On
Versions: 1 2 3 4 5 6 7 8 9 10 11 12 13 14 15 16 17 18 19 20 21 22 23 24 25 26 27 28 29 30 31 32 33 34 35 36 37 38 39 40 41 42 43 44 45 46 47 48 49 50
000
ASUS43 KFSD 280102
RWRSD

WEATHER ROUNDUP FOR SOUTH DAKOTA
NATIONAL WEATHER SERVICE SIOUX FALLS SD
800 PM CDT TUE JUN 27 2017

NOTE: "FAIR" INDICATES FEW OR NO CLOUDS BELOW 12,000 FEET WITH NO
SIGNIFICANT WEATHER AND/OR OBSTRUCTIONS TO VISIBILITY.


SDZ001>005-009-010-012>017-280200-
NORTHWEST AND NORTH CENTRAL SOUTH DAKOTA

CITY           SKY/WX    TMP DP  RH WIND       PRES   REMARKS
BUFFALO          N/A     84  46  26 NW20      29.54F
FAITH            N/A     88  47  24 NW17G25   29.54S
MOBRIDGE       CLOUDY    84  59  42 SE20      29.45F
$$

SDZ012>016-024>037-041>051-057-063-072>074-280200-
SOUTHWEST AND SOUTH CENTRAL SOUTH DAKOTA

CITY           SKY/WX    TMP DP  RH WIND       PRES   REMARKS
RAPID CTY ARPT CLOUDY    69  52  54 NE17G31   29.62F
PIERRE         CLOUDY    87  59  38 S18       29.50S
CUSTER         CLOUDY    55  50  83 W5        29.81R
ELLSWORTH AFB  CLOUDY    67  55  64 N12       29.64
PHILIP         TSTM      63 N/A N/A W40G59    29.69R VSB 1/2
PINE RIDGE     CLOUDY    63  57  81 S3        29.73R
SPEARFISH      FAIR      70  52  52 SW8       29.73R
WINNER         FAIR      86  61  42 SW16G32   29.60R
$$

SDZ004>011-016>023-039-040-280200-
NORTHEAST SOUTH DAKOTA

CITY           SKY/WX    TMP DP  RH WIND       PRES   REMARKS
ABERDEEN       MOSUNNY   80  56  43 SE23G31   29.58F
WATERTOWN      CLOUDY    74  53  48 S20G25    29.69R
BROOKINGS      MOSUNNY   75  57  53 S20G25    29.67F
SISSETON         N/A     77  49  37 S14G24    29.65S
$$

SDZ017-020-022-023-036>040-048>070-280200-
SOUTHEAST SOUTH DAKOTA

CITY           SKY/WX    TMP DP  RH WIND       PRES   REMARKS
SIOUX FALLS    CLOUDY    77  61  57 S23G38    29.69F
HURON          MOSUNNY   80  60  50 S20G28    29.61F
MITCHELL       MOSUNNY   82  63  52 S21G29    29.63R
YANKTON        CLOUDY    80  64  58 S23G29    29.68F
$$

ABBREVIATIONS USED IN REMARKS
   TC - TEMPERATURE IN CELSIUS
  WCI - WIND CHILL INDEX
   HX - HEAT INDEX
  VSB - VISIBILITY




USA.gov is the U.S. government's official web portal to all federal, state and local government web resources and services.